Location: Arrodets-la-Barthe
(43.0306°N, 0.2829°E)
Time: 13:02:12
(UTC+00:00)

RS-44 - Visible Passes

Search period start: 27 March 2023 00:00
Search period end: 06 April 2023 00:00
Orbit: 1174 x 1511 km, 82.5° (Epoch: 27 March)

Date Brightness Start Highest point End Pass type
(mag) Time Alt. Az. Time Alt. Az. Time Alt. Az.
27 Mar ? 01:50:56 10° N 01:58:02 71° N 01:58:02 71° N visible
27 Mar ? 03:46:07 10° NW 03:50:37 20° WNW 03:50:37 20° WNW visible
28 Mar ? 00:22:01 10° N 00:28:55 29° ENE 00:28:57 29° ENE visible
28 Mar ? 02:14:48 10° NNW 02:21:32 58° NW 02:21:32 58° NW visible
28 Mar ? 04:12:09 10° NW 04:14:07 12° WNW 04:14:07 12° WNW visible
29 Mar ? 00:45:19 10° N 00:52:27 43° ENE 00:52:27 43° ENE visible
29 Mar ? 02:38:52 10° NNW 02:45:02 40° WNW 02:45:02 40° WNW visible
29 Mar ? 23:18:12 10° NNE 23:21:57 13° ENE 23:23:24 13° ENE visible
30 Mar ? 01:08:52 10° N 01:15:59 60° NE 01:15:59 60° NE visible
30 Mar ? 03:03:14 10° NNW 03:08:33 27° WNW 03:08:33 27° WNW visible
30 Mar ? 23:40:28 10° NNE 23:46:29 21° ENE 23:46:57 21° ENE visible
31 Mar ? 01:32:36 10° N 01:39:31 67° NNW 01:39:31 67° NNW visible
31 Mar ? 03:28:08 10° NW 03:32:06 17° WNW 03:32:06 17° WNW visible
01 Apr ? 00:03:30 10° N 00:10:30 32° ENE 00:10:30 32° ENE visible
01 Apr ? 01:56:31 10° NNW 02:03:05 52° NW 02:03:05 52° NW visible
01 Apr ? 03:55:31 10° WNW 03:55:40 10° WNW 03:55:40 10° WNW visible
02 Apr ? 00:26:54 10° N 00:34:04 47° ENE 00:34:04 47° ENE visible
02 Apr ? 02:20:39 10° NNW 02:26:39 36° WNW 02:26:39 36° WNW visible
02 Apr ? 22:59:15 10° NNE 23:03:57 16° ENE 23:05:04 15° ENE visible
03 Apr ? 00:50:31 10° N 00:57:40 64° NNE 00:57:40 64° NNE visible
03 Apr ? 02:45:07 10° NNW 02:50:14 25° WNW 02:50:14 25° WNW visible
03 Apr ? 23:21:52 10° NNE 23:28:26 24° ENE 23:28:41 24° ENE visible
04 Apr ? 01:14:18 10° N 01:21:16 65° NNW 01:21:16 65° NNW visible
04 Apr ? 03:10:15 10° NW 03:13:51 16° WNW 03:13:51 16° WNW visible
04 Apr ? 23:45:03 10° N 23:52:17 36° ENE 23:52:17 36° ENE visible
05 Apr ? 01:38:16 10° NNW 01:44:52 48° WNW 01:44:52 48° WNW visible
05 Apr ? 22:19:07 10° NE 22:21:16 11° NE 22:23:20 10° ENE visible
